When you browse on this site, cookies collect data to enhance your experience and personalize the content and advertising you see.
Visit our Privacy Policy to learn more. By continuing to use the site, you agree to this use of cookies and data.
  • Em Portugal
  • Lista de países
  • Para 7 dias
  • Temperatura da água
  • Mapas de satélite
  • Mapa do tempo
  • Widgets de tempo
  • user-avatar
    Iniciar Sessão

    Previsão horária em Jazd

    Hoje, 19 Janeiro, Sábado

    Tempo Temperatura Precipitação Vento Pressão Humidade
    00:00 -1°C° 0 mm 1 m/s 553 mmHg 29%
    01:00 -1°C° 0 mm 1 m/s 552 mmHg 29%
    02:00 -1°C° 0 mm 1 m/s 552 mmHg 30%
    03:00 -4°C° 0 mm 2 m/s 552 mmHg 31%
    04:00 -4°C° 0 mm 2 m/s 551 mmHg 33%
    05:00 -4°C° 0 mm 2 m/s 551 mmHg 34%
    06:00 -5°C° 0 mm 2 m/s 551 mmHg 36%
    07:00 -5°C° 0 mm 2 m/s 551 mmHg 37%
    08:00 -4°C° 0 mm 2 m/s 551 mmHg 34%
    09:00 -5°C° 0 mm 3 m/s 552 mmHg 32%
    10:00 -4°C° 0 mm 3 m/s 552 mmHg 30%
    11:00 -4°C° 0 mm 4 m/s 552 mmHg 31%
    12:00 -4°C° 0 mm 4 m/s 552 mmHg 32%
    13:00 -5°C° 0 mm 5 m/s 552 mmHg 33%
    14:00 -5°C° 0 mm 4 m/s 552 mmHg 37%
    15:00 -5°C° 0 mm 4 m/s 552 mmHg 41%
    16:00 -7°C° 0 mm 4 m/s 552 mmHg 46%
    17:00 -8°C° 0 mm 4 m/s 552 mmHg 48%
    18:00 -7°C° 0 mm 3 m/s 552 mmHg 51%
    19:00 -7°C° 0 mm 2 m/s 552 mmHg 53%
    20:00 -7°C° 0 mm 2 m/s 553 mmHg 52%
    21:00 -6°C° 0 mm 1 m/s 553 mmHg 50%
    22:00 -6°C° 0 mm 1 m/s 553 mmHg 49%
    23:00 -6°C° 0 mm 1 m/s 554 mmHg 47%

    Amanhã, 20 Janeiro, Domingo

    Tempo Temperatura Precipitação Vento Pressão Humidade
    00:00 -6°C° 0 mm 1 m/s 554 mmHg 46%
    01:00 -6°C° 0 mm 1 m/s 554 mmHg 44%
    02:00 -6°C° 0 mm 1 m/s 554 mmHg 44%
    03:00 -6°C° 0 mm 1 m/s 554 mmHg 43%
    04:00 -7°C° 0 mm 1 m/s 554 mmHg 43%
    05:00 -7°C° 0 mm 0 m/s 554 mmHg 43%
    06:00 -7°C° 0 mm 0 m/s 555 mmHg 43%
    07:00 -7°C° 0 mm 0 m/s 555 mmHg 43%
    08:00 -6°C° 0 mm 0 m/s 555 mmHg 40%
    09:00 -5°C° 0 mm 0 m/s 556 mmHg 37%
    10:00 -5°C° 0 mm 0 m/s 556 mmHg 34%
    11:00 -3°C° 0 mm 1 m/s 556 mmHg 32%
    12:00 -2°C° 0 mm 1 m/s 556 mmHg 31%
    13:00 -1°C° 0 mm 1 m/s 556 mmHg 29%
    14:00 -1°C° 0 mm 1 m/s 556 mmHg 29%
    15:00 -1°C° 0 mm 1 m/s 556 mmHg 29%
    16:00 -1°C° 0 mm 1 m/s 555 mmHg 28%
    17:00 -1°C° 0 mm 1 m/s 555 mmHg 31%
    18:00 -2°C° 0 mm 1 m/s 555 mmHg 34%
    19:00 -2°C° 0 mm 1 m/s 555 mmHg 37%
    20:00 -3°C° 0 mm 1 m/s 556 mmHg 37%
    21:00 -3°C° 0 mm 1 m/s 556 mmHg 37%
    22:00 -3°C° 0 mm 1 m/s 556 mmHg 37%
    23:00 -3°C° 0 mm 1 m/s 556 mmHg 37%

    Depois de amanhã, 21 Janeiro, Segunda-feira

    Tempo Temperatura Precipitação Vento Pressão Humidade
    00:00 -3°C° 0 mm 1 m/s 556 mmHg 37%
    01:00 -4°C° 0 mm 1 m/s 556 mmHg 37%
    02:00 -5°C° 0 mm 0 m/s 556 mmHg 37%
    03:00 -5°C° 0 mm 0 m/s 556 mmHg 37%
    04:00 -5°C° 0 mm 0 m/s 556 mmHg 37%
    05:00 -5°C° 0 mm 0 m/s 556 mmHg 37%
    06:00 -5°C° 0 mm 0 m/s 556 mmHg 36%
    07:00 -5°C° 0 mm 0 m/s 556 mmHg 36%
    08:00 -3°C° 0 mm 1 m/s 556 mmHg 33%
    09:00 -2°C° 0 mm 1 m/s 557 mmHg 29%
    10:00 -1°C° 0 mm 1 m/s 558 mmHg 26%
    11:00 0°C° 0 mm 1 m/s 557 mmHg 24%
    12:00 0°C° 0 mm 1 m/s 557 mmHg 23%
    13:00 +1°C° 0 mm 1 m/s 557 mmHg 22%
    14:00 +2°C° 0 mm 1 m/s 556 mmHg 22%
    15:00 +2°C° 0 mm 1 m/s 556 mmHg 21%
    16:00 +2°C° 0 mm 1 m/s 555 mmHg 21%
    17:00 +2°C° 0 mm 1 m/s 555 mmHg 24%
    18:00 +1°C° 0 mm 1 m/s 555 mmHg 27%
    19:00 +1°C° 0 mm 1 m/s 555 mmHg 30%
    20:00 +1°C° 0 mm 1 m/s 555 mmHg 31%
    21:00 0°C° 0 mm 1 m/s 555 mmHg 31%
    22:00 0°C° 0 mm 1 m/s 554 mmHg 31%
    23:00 0°C° 0 mm 1 m/s 554 mmHg 32%

    22 Janeiro, Terça-feira

    Tempo Temperatura Precipitação Vento Pressão Humidade
    00:00 -1°C° 0 mm 1 m/s 554 mmHg 33%
    01:00 -1°C° 0 mm 1 m/s 553 mmHg 33%
    02:00 -1°C° 0 mm 1 m/s 553 mmHg 33%
    03:00 -2°C° 0 mm 1 m/s 553 mmHg 32%
    04:00 -2°C° 0 mm 1 m/s 553 mmHg 31%
    05:00 -2°C° 0 mm 1 m/s 553 mmHg 31%
    06:00 -2°C° 0 mm 1 m/s 553 mmHg 31%
    07:00 -3°C° 0 mm 1 m/s 553 mmHg 31%
    08:00 -1°C° 0 mm 1 m/s 554 mmHg 29%
    09:00 0°C° 0 mm 1 m/s 554 mmHg 27%
    10:00 +1°C° 0 mm 1 m/s 555 mmHg 25%
    11:00 +2°C° 0 mm 1 m/s 555 mmHg 26%
    12:00 +1°C° 0 mm 2 m/s 554 mmHg 26%
    13:00 +2°C° 0 mm 2 m/s 554 mmHg 27%
    14:00 +2°C° 0 mm 2 m/s 554 mmHg 27%
    15:00 +2°C° 0 mm 2 m/s 554 mmHg 27%
    16:00 +2°C° 0 mm 2 m/s 553 mmHg 28%
    17:00 +2°C° 0 mm 2 m/s 553 mmHg 30%
    18:00 +1°C° 0 mm 2 m/s 553 mmHg 33%
    19:00 -1°C° 0 mm 2 m/s 553 mmHg 36%
    20:00 +1°C° 0 mm 1 m/s 554 mmHg 38%
    21:00 0°C° 0 mm 1 m/s 554 mmHg 40%
    22:00 0°C° 0 mm 1 m/s 554 mmHg 42%
    23:00 -1°C° 0 mm 1 m/s 554 mmHg 44%

    23 Janeiro, Quarta-feira

    Tempo Temperatura Precipitação Vento Pressão Humidade
    00:00 -1°C° 0 mm 1 m/s 554 mmHg 45%
    01:00 -3°C° 0 mm 0 m/s 553 mmHg 46%
    02:00 -3°C° 0 mm 0 m/s 553 mmHg 47%
    03:00 -3°C° 0 mm 0 m/s 553 mmHg 48%
    04:00 -4°C° 0 mm 0 m/s 553 mmHg 48%
    05:00 -4°C° 0 mm 0 m/s 553 mmHg 49%
    06:00 -4°C° 0 mm 0 m/s 554 mmHg 49%
    07:00 -4°C° 0 mm 0 m/s 554 mmHg 50%
    08:00 -3°C° 0 mm 0 m/s 554 mmHg 46%
    09:00 -1°C° 0 mm 1 m/s 555 mmHg 42%
    10:00 0°C° 0 mm 1 m/s 556 mmHg 39%
    11:00 0°C° 0 mm 1 m/s 556 mmHg 37%
    12:00 +1°C° 0 mm 1 m/s 556 mmHg 35%
    13:00 +2°C° 0 mm 1 m/s 555 mmHg 33%
    14:00 +2°C° 0 mm 1 m/s 555 mmHg 32%
    15:00 +2°C° 0 mm 1 m/s 555 mmHg 31%
    16:00 +2°C° 0 mm 1 m/s 555 mmHg 30%
    17:00 +2°C° 0 mm 1 m/s 555 mmHg 33%
    18:00 +1°C° 0 mm 1 m/s 555 mmHg 36%
    19:00 0°C° 0 mm 1 m/s 555 mmHg 39%
    20:00 0°C° 0 mm 1 m/s 555 mmHg 40%
    21:00 0°C° 0 mm 1 m/s 555 mmHg 41%
    22:00 -2°C° 0 mm 0 m/s 555 mmHg 41%
    23:00 -2°C° 0 mm 0 m/s 555 mmHg 42%

    24 Janeiro, Quinta-feira

    Tempo Temperatura Precipitação Vento Pressão Humidade
    00:00 -2°C° 0 mm 0 m/s 555 mmHg 42%
    01:00 -3°C° 0 mm 0 m/s 554 mmHg 42%
    02:00 -3°C° 0 mm 0 m/s 554 mmHg 43%
    03:00 -3°C° 0 mm 0 m/s 554 mmHg 43%
    04:00 -3°C° 0 mm 0 m/s 554 mmHg 44%
    05:00 -4°C° 0 mm 0 m/s 554 mmHg 44%
    06:00 -4°C° 0 mm 0 m/s 554 mmHg 45%
    07:00 -4°C° 0 mm 0 m/s 554 mmHg 45%
    08:00 -3°C° 0 mm 0 m/s 555 mmHg 41%
    09:00 -1°C° 0 mm 1 m/s 556 mmHg 37%
    10:00 0°C° 0 mm 1 m/s 557 mmHg 33%
    11:00 +1°C° 0 mm 1 m/s 557 mmHg 32%
    12:00 +2°C° 0 mm 1 m/s 557 mmHg 30%
    13:00 +3°C° 0 mm 1 m/s 556 mmHg 28%
    14:00 +3°C° 0 mm 1 m/s 556 mmHg 27%
    15:00 +3°C° 0 mm 1 m/s 556 mmHg 27%
    16:00 +3°C° 0 mm 1 m/s 556 mmHg 26%
    17:00 +3°C° 0 mm 1 m/s 556 mmHg 30%
    18:00 +2°C° 0 mm 1 m/s 556 mmHg 34%
    19:00 +1°C° 0 mm 1 m/s 555 mmHg 37%
    20:00 +1°C° 0 mm 1 m/s 555 mmHg 37%
    21:00 0°C° 0 mm 1 m/s 555 mmHg 37%
    22:00 0°C° 0 mm 1 m/s 555 mmHg 37%
    23:00 0°C° 0 mm 1 m/s 555 mmHg 37%
    Mostrar mais